Year,Month,Day,Hour,Minute,Value (Times are PST for temperature in C)
2008,06,24,00,00,12.50
2008,06,24,00,01,12.50
2008,06,24,00,02,12.40
2008,06,24,00,03,12.30
2008,06,24,00,04,12.30
2008,06,24,00,05,12.20
2008,06,24,00,06,12.10
2008,06,24,00,07,12.10
2008,06,24,00,08,12.00
2008,06,24,00,09,11.90
2008,06,24,00,10,11.90
2008,06,24,00,11,11.80
2008,06,24,00,12,11.80
2008,06,24,00,13,11.80
2008,06,24,00,14,11.80
2008,06,24,00,15,11.70
2008,06,24,00,16,11.70
2008,06,24,00,17,11.70
2008,06,24,00,18,11.60
2008,06,24,00,19,11.60
2008,06,24,00,20,11.60
2008,06,24,00,21,11.60
2008,06,24,00,22,11.60
2008,06,24,00,23,11.60
2008,06,24,00,24,11.60
2008,06,24,00,25,11.60
2008,06,24,00,26,11.60
2008,06,24,00,27,11.60
2008,06,24,00,28,11.60
2008,06,24,00,29,11.60
2008,06,24,00,30,11.60
2008,06,24,00,31,11.60
2008,06,24,00,32,11.60
2008,06,24,00,33,11.70
2008,06,24,00,34,11.70
2008,06,24,00,35,11.80
2008,06,24,00,36,11.80
2008,06,24,00,37,11.80
2008,06,24,00,38,11.80
2008,06,24,00,39,11.80
2008,06,24,00,40,11.80
2008,06,24,00,41,11.80
2008,06,24,00,42,11.80
2008,06,24,00,43,11.80
2008,06,24,00,44,11.80
2008,06,24,00,45,11.80
2008,06,24,00,46,11.80
2008,06,24,00,47,11.80
2008,06,24,00,48,11.80
2008,06,24,00,49,11.80
2008,06,24,00,50,11.80
2008,06,24,00,51,11.80
2008,06,24,00,52,11.90
2008,06,24,00,53,11.90
2008,06,24,00,54,12.00
2008,06,24,00,55,12.10
2008,06,24,00,56,12.30
2008,06,24,00,57,12.40
2008,06,24,00,58,12.50
2008,06,24,00,59,12.70
2008,06,24,01,00,12.80
2008,06,24,01,01,12.80
2008,06,24,01,02,12.80
2008,06,24,01,03,12.90
2008,06,24,01,04,13.00
2008,06,24,01,05,13.00
2008,06,24,01,06,13.10
2008,06,24,01,07,13.10
2008,06,24,01,08,13.10
2008,06,24,01,09,13.10
2008,06,24,01,10,13.10
2008,06,24,01,11,13.10
2008,06,24,01,12,13.10
2008,06,24,01,13,13.10
2008,06,24,01,14,13.10
2008,06,24,01,15,13.00
2008,06,24,01,16,13.00
2008,06,24,01,17,13.00
2008,06,24,01,18,13.00
2008,06,24,01,19,13.00
2008,06,24,01,20,13.00
2008,06,24,01,21,13.00
2008,06,24,01,22,13.00
2008,06,24,01,23,13.00
2008,06,24,01,24,13.00
2008,06,24,01,25,13.00
2008,06,24,01,26,13.00
2008,06,24,01,27,13.00
2008,06,24,01,28,13.00
2008,06,24,01,29,13.00
2008,06,24,01,30,13.00
2008,06,24,01,31,13.00
2008,06,24,01,32,12.90
2008,06,24,01,33,12.90
2008,06,24,01,34,12.90
2008,06,24,01,35,12.90
2008,06,24,01,36,12.90
2008,06,24,01,37,12.90
2008,06,24,01,38,12.90
2008,06,24,01,39,12.90
2008,06,24,01,40,12.90
2008,06,24,01,41,12.90
2008,06,24,01,42,12.90
2008,06,24,01,43,12.90
2008,06,24,01,44,12.90
2008,06,24,01,45,12.90
2008,06,24,01,46,12.80
2008,06,24,01,47,12.80
2008,06,24,01,48,12.80
2008,06,24,01,49,12.80
2008,06,24,01,50,12.80
2008,06,24,01,51,12.80
2008,06,24,01,52,12.80
2008,06,24,01,53,12.80
2008,06,24,01,54,12.70
2008,06,24,01,55,12.70
2008,06,24,01,56,12.70
2008,06,24,01,57,12.70
2008,06,24,01,58,12.70
2008,06,24,01,59,12.60
2008,06,24,02,00,12.60
2008,06,24,02,01,12.60
2008,06,24,02,02,12.60
2008,06,24,02,03,12.60
2008,06,24,02,04,12.50
2008,06,24,02,05,12.50
2008,06,24,02,06,12.50
2008,06,24,02,07,12.40
2008,06,24,02,08,12.40
2008,06,24,02,09,12.40
2008,06,24,02,10,12.30
2008,06,24,02,11,12.30
2008,06,24,02,12,12.30
2008,06,24,02,13,12.30
2008,06,24,02,14,12.30
2008,06,24,02,15,12.20
2008,06,24,02,16,12.20
2008,06,24,02,17,12.20
2008,06,24,02,18,12.20
2008,06,24,02,19,12.10
2008,06,24,02,20,12.10
2008,06,24,02,21,12.10
2008,06,24,02,22,12.10
2008,06,24,02,23,12.00
2008,06,24,02,24,12.00
2008,06,24,02,25,12.00
2008,06,24,02,26,12.00
2008,06,24,02,27,11.90
2008,06,24,02,28,11.90
2008,06,24,02,29,11.90
2008,06,24,02,30,11.90
2008,06,24,02,31,11.80
2008,06,24,02,32,11.80
2008,06,24,02,33,11.80
2008,06,24,02,34,11.80
2008,06,24,02,35,11.80
2008,06,24,02,36,11.80
2008,06,24,02,37,11.80
2008,06,24,02,38,11.80
2008,06,24,02,39,11.80
2008,06,24,02,40,11.80
2008,06,24,02,41,11.80
2008,06,24,02,42,11.80
2008,06,24,02,43,11.80
2008,06,24,02,44,11.80
2008,06,24,02,45,11.80
2008,06,24,02,46,11.80
2008,06,24,02,47,11.80
2008,06,24,02,48,11.80
2008,06,24,02,49,11.80
2008,06,24,02,50,11.80
2008,06,24,02,51,11.80
2008,06,24,02,52,11.80
2008,06,24,02,53,11.90
2008,06,24,02,54,11.90
2008,06,24,02,55,11.90
2008,06,24,02,56,11.90
2008,06,24,02,57,11.90
2008,06,24,02,58,12.00
2008,06,24,02,59,12.00
2008,06,24,03,00,12.00
2008,06,24,03,01,12.00
2008,06,24,03,02,12.10
2008,06,24,03,03,12.10
2008,06,24,03,04,12.10
2008,06,24,03,05,12.10
2008,06,24,03,06,12.10
2008,06,24,03,07,12.10
2008,06,24,03,08,12.10
2008,06,24,03,09,12.20
2008,06,24,03,10,12.20
2008,06,24,03,11,12.20
2008,06,24,03,12,12.20
2008,06,24,03,13,12.20
2008,06,24,03,14,12.20
2008,06,24,03,15,12.20
2008,06,24,03,16,12.20
2008,06,24,03,17,12.20
2008,06,24,03,18,12.20
2008,06,24,03,19,12.20
2008,06,24,03,20,12.20
2008,06,24,03,21,12.20
2008,06,24,03,22,12.20
2008,06,24,03,23,12.20
2008,06,24,03,24,12.20
2008,06,24,03,25,12.20
2008,06,24,03,26,12.10
2008,06,24,03,27,12.10
2008,06,24,03,28,12.10
2008,06,24,03,29,12.10
2008,06,24,03,30,12.10
2008,06,24,03,31,12.10
2008,06,24,03,32,12.10
2008,06,24,03,33,12.00
2008,06,24,03,34,12.00
2008,06,24,03,35,12.00
2008,06,24,03,36,12.00
2008,06,24,03,37,12.00
2008,06,24,03,38,12.00
2008,06,24,03,39,11.90
2008,06,24,03,40,11.90
2008,06,24,03,41,11.90
2008,06,24,03,42,11.90
2008,06,24,03,43,11.90
2008,06,24,03,44,11.80
2008,06,24,03,45,11.80
2008,06,24,03,46,11.80
2008,06,24,03,47,11.80
2008,06,24,03,48,11.80
2008,06,24,03,49,11.80
2008,06,24,03,50,11.80
2008,06,24,03,51,11.80
2008,06,24,03,52,11.80
2008,06,24,03,53,11.80
2008,06,24,03,54,11.80
2008,06,24,03,55,11.80
2008,06,24,03,56,11.80
2008,06,24,03,57,11.80
2008,06,24,03,58,11.80
2008,06,24,03,59,11.80
2008,06,24,04,00,11.80
2008,06,24,04,01,11.80
2008,06,24,04,02,11.90
2008,06,24,04,03,11.90
2008,06,24,04,04,11.90
2008,06,24,04,05,11.90
2008,06,24,04,06,11.90
2008,06,24,04,07,11.90
2008,06,24,04,08,11.90
2008,06,24,04,09,11.90
2008,06,24,04,10,11.90
2008,06,24,04,11,11.90
2008,06,24,04,12,11.90
2008,06,24,04,13,11.90
2008,06,24,04,14,11.90
2008,06,24,04,15,11.90
2008,06,24,04,16,11.90
2008,06,24,04,17,11.90
2008,06,24,04,18,11.90
2008,06,24,04,19,11.90
2008,06,24,04,20,11.80
2008,06,24,04,21,11.80
2008,06,24,04,22,11.80
2008,06,24,04,23,11.80
2008,06,24,04,24,11.80
2008,06,24,04,25,11.80
2008,06,24,04,26,11.80
2008,06,24,04,27,11.80
2008,06,24,04,28,11.80
2008,06,24,04,29,11.80
2008,06,24,04,30,11.80
2008,06,24,04,31,11.80
2008,06,24,04,32,11.80
2008,06,24,04,33,11.80
2008,06,24,04,34,11.80
2008,06,24,04,35,11.80
2008,06,24,04,36,11.80
2008,06,24,04,37,11.80
2008,06,24,04,38,11.80
2008,06,24,04,39,11.80
2008,06,24,04,40,11.70
2008,06,24,04,41,11.80
2008,06,24,04,42,11.70
2008,06,24,04,43,11.70
2008,06,24,04,44,11.70
2008,06,24,04,45,11.70
2008,06,24,04,46,11.70
2008,06,24,04,47,11.70
2008,06,24,04,48,11.70
2008,06,24,04,49,11.70
2008,06,24,04,50,11.70
2008,06,24,04,51,11.70
2008,06,24,04,52,11.70
2008,06,24,04,53,11.60
2008,06,24,04,54,11.60
2008,06,24,04,55,11.60
2008,06,24,04,56,11.60
2008,06,24,04,57,11.60
2008,06,24,04,58,11.60
2008,06,24,04,59,11.60
2008,06,24,05,00,11.60
2008,06,24,05,01,11.60
2008,06,24,05,02,11.60
2008,06,24,05,03,11.60
2008,06,24,05,04,11.60
2008,06,24,05,05,11.60
2008,06,24,05,06,11.60
2008,06,24,05,07,11.60
2008,06,24,05,08,11.60
2008,06,24,05,09,11.60
2008,06,24,05,10,11.60
2008,06,24,05,11,11.60
2008,06,24,05,12,11.60
2008,06,24,05,13,11.60
2008,06,24,05,14,11.60
2008,06,24,05,15,11.60
2008,06,24,05,16,11.60
2008,06,24,05,17,11.50
2008,06,24,05,18,11.40
2008,06,24,05,19,11.40
2008,06,24,05,20,11.40
2008,06,24,05,21,11.40
2008,06,24,05,22,11.40
2008,06,24,05,23,11.40
2008,06,24,05,24,11.40
2008,06,24,05,25,11.40
2008,06,24,05,26,11.40
2008,06,24,05,27,11.40
2008,06,24,05,28,11.40
2008,06,24,05,29,11.40
2008,06,24,05,30,11.40
2008,06,24,05,31,11.40
2008,06,24,05,32,11.40
2008,06,24,05,33,11.40
2008,06,24,05,34,11.40
2008,06,24,05,35,11.40
2008,06,24,05,36,11.40
2008,06,24,05,37,11.40
2008,06,24,05,38,11.40
2008,06,24,05,39,11.40
2008,06,24,05,40,11.40
2008,06,24,05,41,11.40
2008,06,24,05,42,11.40
2008,06,24,05,43,11.40
2008,06,24,05,44,11.40
2008,06,24,05,45,11.30
2008,06,24,05,46,11.30
2008,06,24,05,47,11.30
2008,06,24,05,48,11.30
2008,06,24,05,49,11.30
2008,06,24,05,50,11.30
2008,06,24,05,51,11.30
2008,06,24,05,52,11.30
2008,06,24,05,53,11.30
2008,06,24,05,54,11.30
2008,06,24,05,55,11.30
2008,06,24,05,56,11.30
2008,06,24,05,57,11.30
2008,06,24,05,58,11.30
2008,06,24,05,59,11.30
2008,06,24,06,00,11.40
2008,06,24,06,01,11.40
2008,06,24,06,02,11.40
2008,06,24,06,03,11.40
2008,06,24,06,04,11.40
2008,06,24,06,05,11.30
2008,06,24,06,06,11.30
2008,06,24,06,07,11.30
2008,06,24,06,08,11.30
2008,06,24,06,09,11.30
2008,06,24,06,10,11.30
2008,06,24,06,11,11.30
2008,06,24,06,12,11.30
2008,06,24,06,13,11.30
2008,06,24,06,14,11.30
2008,06,24,06,15,11.30
2008,06,24,06,16,11.30
2008,06,24,06,17,11.40
2008,06,24,06,18,11.40
2008,06,24,06,19,11.40
2008,06,24,06,20,11.40
2008,06,24,06,21,11.40
2008,06,24,06,22,11.40
2008,06,24,06,23,11.40
2008,06,24,06,24,11.40
2008,06,24,06,25,11.40
2008,06,24,06,26,11.40
2008,06,24,06,27,11.40
2008,06,24,06,28,11.40
2008,06,24,06,29,11.40
2008,06,24,06,30,11.40
2008,06,24,06,31,11.40
2008,06,24,06,32,11.40
2008,06,24,06,33,11.40
2008,06,24,06,34,11.40
2008,06,24,06,35,11.40
2008,06,24,06,36,11.40
2008,06,24,06,37,11.40
2008,06,24,06,38,11.40
2008,06,24,06,39,11.40
2008,06,24,06,40,11.40
2008,06,24,06,41,11.40
2008,06,24,06,42,11.40
2008,06,24,06,43,11.40
2008,06,24,06,44,11.40
2008,06,24,06,45,11.40
2008,06,24,06,46,11.40
2008,06,24,06,47,11.40
2008,06,24,06,48,11.40
2008,06,24,06,49,11.40
2008,06,24,06,50,11.60
2008,06,24,06,51,11.60
2008,06,24,06,52,11.60
2008,06,24,06,53,11.60
2008,06,24,06,54,11.60
2008,06,24,06,55,11.60
2008,06,24,06,56,11.60
2008,06,24,06,57,11.60
2008,06,24,06,58,11.60
2008,06,24,06,59,11.60
2008,06,24,07,00,11.60
2008,06,24,07,01,11.60
2008,06,24,07,02,11.60
2008,06,24,07,03,11.60
2008,06,24,07,04,11.60
2008,06,24,07,05,11.60
2008,06,24,07,06,11.60
2008,06,24,07,07,11.70
2008,06,24,07,08,11.70
2008,06,24,07,09,11.70
2008,06,24,07,10,11.70
2008,06,24,07,11,11.70
2008,06,24,07,12,11.70
2008,06,24,07,13,11.80
2008,06,24,07,14,11.80
2008,06,24,07,15,11.80
2008,06,24,07,16,11.80
2008,06,24,07,17,11.80
2008,06,24,07,18,11.80
2008,06,24,07,19,11.80
2008,06,24,07,20,11.80
2008,06,24,07,21,11.80
2008,06,24,07,22,11.80
2008,06,24,07,23,11.80
2008,06,24,07,24,11.80
2008,06,24,07,25,11.80
2008,06,24,07,26,11.80
2008,06,24,07,27,11.80
2008,06,24,07,28,11.80
2008,06,24,07,29,11.80
2008,06,24,07,30,11.80
2008,06,24,07,31,11.80
2008,06,24,07,32,11.90
2008,06,24,07,33,11.90
2008,06,24,07,34,11.90
2008,06,24,07,35,11.90
2008,06,24,07,36,11.90
2008,06,24,07,37,11.90
2008,06,24,07,38,11.90
2008,06,24,07,39,11.90
2008,06,24,07,40,12.00
2008,06,24,07,41,12.00
2008,06,24,07,42,12.00
2008,06,24,07,43,12.00
2008,06,24,07,44,12.00
2008,06,24,07,45,12.00
2008,06,24,07,46,12.10
2008,06,24,07,47,12.10
2008,06,24,07,48,12.10
2008,06,24,07,49,12.10
2008,06,24,07,50,12.10
2008,06,24,07,51,12.10
2008,06,24,07,52,12.20
2008,06,24,07,53,12.20
2008,06,24,07,54,12.20
2008,06,24,07,55,12.20
2008,06,24,07,56,12.20
2008,06,24,07,57,12.30
2008,06,24,07,58,12.30
2008,06,24,07,59,12.30
2008,06,24,08,00,12.30
2008,06,24,08,01,12.30
2008,06,24,08,02,12.30
2008,06,24,08,03,12.30
2008,06,24,08,04,12.30
2008,06,24,08,05,12.40
2008,06,24,08,06,12.40
2008,06,24,08,07,12.40
2008,06,24,08,08,12.50
2008,06,24,08,09,12.50
2008,06,24,08,10,12.50
2008,06,24,08,11,12.50
2008,06,24,08,12,12.60
2008,06,24,08,13,12.60
2008,06,24,08,14,12.60
2008,06,24,08,15,12.70
2008,06,24,08,16,12.70
2008,06,24,08,17,12.70
2008,06,24,08,18,12.80
2008,06,24,08,19,12.80
2008,06,24,08,20,12.80
2008,06,24,08,21,12.80
2008,06,24,08,22,12.90
2008,06,24,08,23,13.00
2008,06,24,08,24,13.10
2008,06,24,08,25,13.20
2008,06,24,08,26,13.30
2008,06,24,08,27,13.40
2008,06,24,08,28,13.50
2008,06,24,08,29,13.60
2008,06,24,08,30,13.70
2008,06,24,08,31,13.70
2008,06,24,08,32,13.80
2008,06,24,08,33,13.90
2008,06,24,08,34,14.00
2008,06,24,08,35,14.00
2008,06,24,08,36,14.00
2008,06,24,08,37,14.10
2008,06,24,08,38,14.10
2008,06,24,08,39,14.20
2008,06,24,08,40,14.20
2008,06,24,08,41,14.20
2008,06,24,08,42,14.20
2008,06,24,08,43,14.20
2008,06,24,08,44,14.10
2008,06,24,08,45,14.10
2008,06,24,08,46,14.10
2008,06,24,08,47,14.00
2008,06,24,08,48,14.00
2008,06,24,08,49,13.90
2008,06,24,08,50,13.90
2008,06,24,08,51,13.90
2008,06,24,08,52,14.00
2008,06,24,08,53,14.00
2008,06,24,08,54,14.00
2008,06,24,08,55,14.00
2008,06,24,08,56,14.00
2008,06,24,08,57,14.00
2008,06,24,08,58,14.00
2008,06,24,08,59,14.00
2008,06,24,09,00,14.00
2008,06,24,09,01,14.00
2008,06,24,09,02,14.00
2008,06,24,09,03,14.00
2008,06,24,09,04,14.00
2008,06,24,09,05,14.00
2008,06,24,09,06,14.00
2008,06,24,09,07,14.10
2008,06,24,09,08,14.10
2008,06,24,09,09,14.10
2008,06,24,09,10,14.10
2008,06,24,09,11,14.10
2008,06,24,09,12,14.10
2008,06,24,09,13,14.10
2008,06,24,09,14,14.10
2008,06,24,09,15,14.10
2008,06,24,09,16,14.00
2008,06,24,09,17,14.00
2008,06,24,09,18,14.00
2008,06,24,09,19,14.00
2008,06,24,09,20,14.00
2008,06,24,09,21,14.00
2008,06,24,09,22,14.00
2008,06,24,09,23,14.00
2008,06,24,09,24,14.00
2008,06,24,09,25,14.10
2008,06,24,09,26,14.10
2008,06,24,09,27,14.10
2008,06,24,09,28,14.20
2008,06,24,09,29,14.20
2008,06,24,09,30,14.20
2008,06,24,09,31,14.20
2008,06,24,09,32,14.20
2008,06,24,09,33,14.20
2008,06,24,09,34,14.20
2008,06,24,09,35,14.20
2008,06,24,09,36,14.20
2008,06,24,09,37,14.20
2008,06,24,09,38,14.20
2008,06,24,09,39,14.20
2008,06,24,09,40,14.20
2008,06,24,09,41,14.20
2008,06,24,09,42,14.20
2008,06,24,09,43,14.20
2008,06,24,09,44,14.20
2008,06,24,09,45,14.30
2008,06,24,09,46,14.30
2008,06,24,09,47,14.30
2008,06,24,09,48,14.40
2008,06,24,09,49,14.40
2008,06,24,09,50,14.50
2008,06,24,09,51,14.50
2008,06,24,09,52,14.50
2008,06,24,09,53,14.60
2008,06,24,09,54,14.60
2008,06,24,09,55,14.60
2008,06,24,09,56,14.60
2008,06,24,09,57,14.60
2008,06,24,09,58,14.50
2008,06,24,09,59,14.50
2008,06,24,10,00,14.60
2008,06,24,10,01,14.60
2008,06,24,10,02,14.60
2008,06,24,10,03,14.60
2008,06,24,10,04,14.60
2008,06,24,10,05,14.60
2008,06,24,10,06,14.60
2008,06,24,10,07,14.70
2008,06,24,10,08,14.80
2008,06,24,10,09,14.90
2008,06,24,10,10,14.90
2008,06,24,10,11,15.00
2008,06,24,10,12,15.10
2008,06,24,10,13,15.30
2008,06,24,10,14,15.40
2008,06,24,10,15,15.50
2008,06,24,10,16,15.50
2008,06,24,10,17,15.60
2008,06,24,10,18,15.70
2008,06,24,10,19,15.80
2008,06,24,10,20,15.90
2008,06,24,10,21,16.10
2008,06,24,10,22,16.10
2008,06,24,10,23,16.20
2008,06,24,10,24,16.20
2008,06,24,10,25,16.20
2008,06,24,10,26,16.20
2008,06,24,10,27,16.30
2008,06,24,10,28,16.30
2008,06,24,10,29,16.40
2008,06,24,10,30,16.50
2008,06,24,10,31,16.60
2008,06,24,10,32,16.40
2008,06,24,10,33,16.40
2008,06,24,10,34,16.30
2008,06,24,10,35,16.20
2008,06,24,10,36,16.00
2008,06,24,10,37,15.80
2008,06,24,10,38,15.70
2008,06,24,10,39,15.50
2008,06,24,10,40,15.40
2008,06,24,10,41,15.40
2008,06,24,10,42,15.30
2008,06,24,10,43,15.30
2008,06,24,10,44,15.30
2008,06,24,10,45,15.30
2008,06,24,10,46,15.30
2008,06,24,10,47,15.20
2008,06,24,10,48,15.20
2008,06,24,10,49,15.20
2008,06,24,10,50,15.20
2008,06,24,10,51,15.30
2008,06,24,10,52,15.30
2008,06,24,10,53,15.20
2008,06,24,10,54,15.20
2008,06,24,10,55,15.20
2008,06,24,10,56,15.10
2008,06,24,10,57,15.20
2008,06,24,10,58,15.20
2008,06,24,10,59,15.10
2008,06,24,11,00,15.10
2008,06,24,11,01,15.10
2008,06,24,11,02,15.10
2008,06,24,11,03,15.10
2008,06,24,11,04,15.20
2008,06,24,11,05,15.20
2008,06,24,11,06,15.20
2008,06,24,11,07,15.20
2008,06,24,11,08,15.20
2008,06,24,11,09,15.20
2008,06,24,11,10,15.20
2008,06,24,11,11,15.20
2008,06,24,11,12,15.20
2008,06,24,11,13,15.20
2008,06,24,11,14,15.30
2008,06,24,11,15,15.30
2008,06,24,11,16,15.30
2008,06,24,11,17,15.30
2008,06,24,11,18,15.30
2008,06,24,11,19,15.30
2008,06,24,11,20,15.40
2008,06,24,11,21,15.50
2008,06,24,11,22,15.50
2008,06,24,11,23,15.60
2008,06,24,11,24,15.60
2008,06,24,11,25,15.60
2008,06,24,11,26,15.60
2008,06,24,11,27,15.70
2008,06,24,11,28,15.70
2008,06,24,11,29,15.70
2008,06,24,11,30,15.70
2008,06,24,11,31,15.70
2008,06,24,11,32,15.70
2008,06,24,11,33,15.70
2008,06,24,11,34,15.60
2008,06,24,11,35,15.60
2008,06,24,11,36,15.60
2008,06,24,11,37,15.60
2008,06,24,11,38,15.60
2008,06,24,11,39,15.60
2008,06,24,11,40,15.60
2008,06,24,11,41,15.60
2008,06,24,11,42,15.60
2008,06,24,11,43,15.60
2008,06,24,11,44,15.70
2008,06,24,11,45,15.70
2008,06,24,11,46,15.70
2008,06,24,11,47,15.70
2008,06,24,11,48,15.80
2008,06,24,11,49,15.80
2008,06,24,11,50,15.80
2008,06,24,11,51,15.80
2008,06,24,11,52,15.80
2008,06,24,11,53,15.80
2008,06,24,11,54,15.90
2008,06,24,11,55,16.00
2008,06,24,11,56,16.10
2008,06,24,11,57,16.10
2008,06,24,11,58,16.10
2008,06,24,11,59,16.20
2008,06,24,12,00,16.30
2008,06,24,12,01,16.40
2008,06,24,12,02,16.50
2008,06,24,12,03,16.70
2008,06,24,12,04,16.80
2008,06,24,12,05,17.00
2008,06,24,12,06,17.20
2008,06,24,12,07,17.30
2008,06,24,12,08,17.30
2008,06,24,12,09,17.40
2008,06,24,12,10,17.50
2008,06,24,12,11,17.50
2008,06,24,12,12,17.70
2008,06,24,12,13,17.80
2008,06,24,12,14,17.90
2008,06,24,12,15,18.00
2008,06,24,12,16,18.10
2008,06,24,12,17,18.20
2008,06,24,12,18,18.20
2008,06,24,12,19,18.20
2008,06,24,12,20,18.30
2008,06,24,12,21,18.30
2008,06,24,12,22,18.30
2008,06,24,12,23,18.20
2008,06,24,12,24,18.20
2008,06,24,12,25,18.10
2008,06,24,12,26,18.10
2008,06,24,12,27,18.10
2008,06,24,12,28,18.10
2008,06,24,12,29,18.10
2008,06,24,12,30,18.10
2008,06,24,12,31,18.30
2008,06,24,12,32,18.40
2008,06,24,12,33,18.50
2008,06,24,12,34,18.60
2008,06,24,12,35,18.60
2008,06,24,12,36,18.70
2008,06,24,12,37,18.80
2008,06,24,12,38,18.90
2008,06,24,12,39,19.00
2008,06,24,12,40,19.20
2008,06,24,12,41,19.30
2008,06,24,12,42,19.50
2008,06,24,12,43,19.60
2008,06,24,12,44,19.60
2008,06,24,12,45,19.60
2008,06,24,12,46,19.60
2008,06,24,12,47,19.50
2008,06,24,12,48,19.40
2008,06,24,12,49,19.50
2008,06,24,12,50,19.50
2008,06,24,12,51,19.50
2008,06,24,12,52,19.40
2008,06,24,12,53,19.20
2008,06,24,12,54,19.10
2008,06,24,12,55,19.10
2008,06,24,12,56,19.10
2008,06,24,12,57,19.10
2008,06,24,12,58,19.20
2008,06,24,12,59,19.30
2008,06,24,13,00,19.40
2008,06,24,13,01,19.50
2008,06,24,13,02,19.60
2008,06,24,13,03,19.70
2008,06,24,13,04,19.70
2008,06,24,13,05,19.70
2008,06,24,13,06,19.60
2008,06,24,13,07,19.60
2008,06,24,13,08,19.60
2008,06,24,13,09,19.70
2008,06,24,13,10,19.80
2008,06,24,13,11,19.90
2008,06,24,13,12,19.90
2008,06,24,13,13,20.10
2008,06,24,13,14,20.10
2008,06,24,13,15,20.20
2008,06,24,13,16,20.20
2008,06,24,13,17,20.30
2008,06,24,13,18,20.40
2008,06,24,13,19,20.30
2008,06,24,13,20,20.30
2008,06,24,13,21,20.40
2008,06,24,13,22,20.40
2008,06,24,13,23,20.20
2008,06,24,13,24,20.00
2008,06,24,13,25,19.90
2008,06,24,13,26,19.90
2008,06,24,13,27,19.90
2008,06,24,13,28,19.80
2008,06,24,13,29,19.80
2008,06,24,13,30,19.80
2008,06,24,13,31,19.80
2008,06,24,13,32,19.70
2008,06,24,13,33,19.70
2008,06,24,13,34,19.70
2008,06,24,13,35,19.70
2008,06,24,13,36,19.80
2008,06,24,13,37,19.80
2008,06,24,13,38,19.80
2008,06,24,13,39,19.80
2008,06,24,13,40,19.70
2008,06,24,13,41,19.70
2008,06,24,13,42,19.70
2008,06,24,13,43,19.70
2008,06,24,13,44,19.80
2008,06,24,13,45,19.90
2008,06,24,13,46,19.90
2008,06,24,13,47,20.00
2008,06,24,13,48,20.10
2008,06,24,13,49,20.20
2008,06,24,13,50,20.30
2008,06,24,13,51,20.40
2008,06,24,13,52,20.50
2008,06,24,13,53,20.40
2008,06,24,13,54,20.30
2008,06,24,13,55,20.20
2008,06,24,13,56,20.20
2008,06,24,13,57,20.20
2008,06,24,13,58,20.20
2008,06,24,13,59,20.00
2008,06,24,14,00,19.90
2008,06,24,14,01,19.90
2008,06,24,14,02,19.90
2008,06,24,14,03,19.80
2008,06,24,14,04,19.60
2008,06,24,14,05,19.40
2008,06,24,14,06,19.30
2008,06,24,14,07,19.20
2008,06,24,14,08,19.10
2008,06,24,14,09,19.00
2008,06,24,14,10,18.90
2008,06,24,14,11,18.90
2008,06,24,14,12,18.80
2008,06,24,14,13,18.60
2008,06,24,14,14,18.50
2008,06,24,14,15,18.30
2008,06,24,14,16,18.20
2008,06,24,14,17,18.20
2008,06,24,14,18,18.20
2008,06,24,14,19,18.10
2008,06,24,14,20,18.10
2008,06,24,14,21,18.10
2008,06,24,14,22,18.20
2008,06,24,14,23,18.20
2008,06,24,14,24,18.20
2008,06,24,14,25,18.10
2008,06,24,14,26,18.00
2008,06,24,14,27,17.90
2008,06,24,14,28,17.90
2008,06,24,14,29,17.90
2008,06,24,14,30,17.90
2008,06,24,14,31,17.90
2008,06,24,14,32,17.80
2008,06,24,14,33,17.80
2008,06,24,14,34,17.80
2008,06,24,14,35,17.70
2008,06,24,14,36,17.80
2008,06,24,14,37,17.80
2008,06,24,14,38,17.80
2008,06,24,14,39,17.80
2008,06,24,14,40,17.80
2008,06,24,14,41,17.80
2008,06,24,14,42,17.80
2008,06,24,14,43,17.70
2008,06,24,14,44,17.70
2008,06,24,14,45,17.80
2008,06,24,14,46,17.80
2008,06,24,14,47,17.80
2008,06,24,14,48,17.80
2008,06,24,14,49,17.90
2008,06,24,14,50,17.90
2008,06,24,14,51,17.90
2008,06,24,14,52,17.90
2008,06,24,14,53,17.90
2008,06,24,14,54,18.10
2008,06,24,14,55,18.10
2008,06,24,14,56,18.10
2008,06,24,14,57,18.10
2008,06,24,14,58,18.10
2008,06,24,14,59,18.10
2008,06,24,15,00,18.20
2008,06,24,15,01,18.10
2008,06,24,15,02,18.10
2008,06,24,15,03,18.20
2008,06,24,15,04,18.20
2008,06,24,15,05,18.20
2008,06,24,15,06,18.20
2008,06,24,15,07,18.20
2008,06,24,15,08,18.30
2008,06,24,15,09,18.40
2008,06,24,15,10,18.50
2008,06,24,15,11,18.60
2008,06,24,15,12,18.60
2008,06,24,15,13,18.70
2008,06,24,15,14,18.70
2008,06,24,15,15,18.80
2008,06,24,15,16,18.80
2008,06,24,15,17,18.80
2008,06,24,15,18,18.80
2008,06,24,15,19,18.80
2008,06,24,15,20,18.80
2008,06,24,15,21,18.70
2008,06,24,15,22,18.70
2008,06,24,15,23,18.60
2008,06,24,15,24,18.60
2008,06,24,15,25,18.60
2008,06,24,15,26,18.70
2008,06,24,15,27,18.70
2008,06,24,15,28,18.80
2008,06,24,15,29,18.90
2008,06,24,15,30,19.10
2008,06,24,15,31,19.10
2008,06,24,15,32,18.90
2008,06,24,15,33,18.90
2008,06,24,15,34,18.90
2008,06,24,15,35,18.80
2008,06,24,15,36,18.70
2008,06,24,15,37,18.60
2008,06,24,15,38,18.60
2008,06,24,15,39,18.50
2008,06,24,15,40,18.50
2008,06,24,15,41,18.50
2008,06,24,15,42,18.50
2008,06,24,15,43,18.40
2008,06,24,15,44,18.40
2008,06,24,15,45,18.40
2008,06,24,15,46,18.40
2008,06,24,15,47,18.40
2008,06,24,15,48,18.40
2008,06,24,15,49,18.50
2008,06,24,15,50,18.50
2008,06,24,15,51,18.60
2008,06,24,15,52,18.60
2008,06,24,15,53,18.80
2008,06,24,15,54,18.90
2008,06,24,15,55,19.00
2008,06,24,15,56,19.10
2008,06,24,15,57,19.10
2008,06,24,15,58,19.00
2008,06,24,15,59,18.90
2008,06,24,16,00,18.80
2008,06,24,16,01,18.70
2008,06,24,16,02,18.60
2008,06,24,16,03,18.60
2008,06,24,16,04,18.50
2008,06,24,16,05,18.40
2008,06,24,16,06,18.40
2008,06,24,16,07,18.40
2008,06,24,16,08,18.30
2008,06,24,16,09,18.30
2008,06,24,16,10,18.30
2008,06,24,16,11,18.20
2008,06,24,16,12,18.20
2008,06,24,16,13,18.10
2008,06,24,16,14,18.10
2008,06,24,16,15,17.90
2008,06,24,16,16,17.90
2008,06,24,16,17,17.90
2008,06,24,16,18,17.90
2008,06,24,16,19,17.90
2008,06,24,16,20,17.90
2008,06,24,16,21,18.00
2008,06,24,16,22,18.10
2008,06,24,16,23,18.20
2008,06,24,16,24,18.20
2008,06,24,16,25,18.20
2008,06,24,16,26,18.20
2008,06,24,16,27,18.30
2008,06,24,16,28,18.30
2008,06,24,16,29,18.30
2008,06,24,16,30,18.30
2008,06,24,16,31,18.30
2008,06,24,16,32,18.30
2008,06,24,16,33,18.30
2008,06,24,16,34,18.20
2008,06,24,16,35,18.20
2008,06,24,16,36,18.20
2008,06,24,16,37,18.20
2008,06,24,16,38,18.20
2008,06,24,16,39,18.10
2008,06,24,16,40,18.10
2008,06,24,16,41,18.10
2008,06,24,16,42,18.00
2008,06,24,16,43,17.90
2008,06,24,16,44,17.90
2008,06,24,16,45,17.90
2008,06,24,16,46,17.80
2008,06,24,16,47,17.80
2008,06,24,16,48,17.80
2008,06,24,16,49,17.80
2008,06,24,16,50,17.80
2008,06,24,16,51,17.80
2008,06,24,16,52,17.80
2008,06,24,16,53,17.80
2008,06,24,16,54,17.80
2008,06,24,16,55,17.80
2008,06,24,16,56,17.80
2008,06,24,16,57,17.80
2008,06,24,16,58,17.80
2008,06,24,16,59,17.90
2008,06,24,17,00,17.90
2008,06,24,17,01,17.90
2008,06,24,17,02,17.90
2008,06,24,17,03,17.90
2008,06,24,17,04,17.90
2008,06,24,17,05,17.90
2008,06,24,17,06,17.90
2008,06,24,17,07,17.90
2008,06,24,17,08,17.90
2008,06,24,17,09,17.90
2008,06,24,17,10,17.90
2008,06,24,17,11,17.90
2008,06,24,17,12,17.90
2008,06,24,17,13,17.90
2008,06,24,17,14,17.90
2008,06,24,17,15,17.90
2008,06,24,17,16,17.90
2008,06,24,17,17,17.90
2008,06,24,17,18,17.90
2008,06,24,17,19,17.90